Temperature
16 16 16 17 17 17 17 17 17 17 18 18 18 17 17 17 16 16 16 16 16 16 16 16 16 16 15 15 15 15 15 15 15 15 15 15 15 15
16 16 16 16 16 16 16 16 17 17 17 17 17 17 17 17 17 16 16 16 16 16 16 16 16 16 16 16 16 15 15 15 15 15 15 15 15 15
16 16 16 16 16 16 16 16 16 16 16 17 17 17 17 17 17 16 16 16 16 16 16 16 16 16 16 16 16 16 16 16 15 15 15 15 15 15
15 15 15 16 16 16 16 16 16 16 16 16 16 16 16 16 16 16 16 15 15 15 15 15 16 16 16 16 16 16 16 16 15 15 15 15 15 15
15 15 15 15 15 15 15 15 15 15 15 15 15 15 15 15 15 15 15 15 15 15 15 15 15 15 15 15 15 15 15 15 15 15 15 15 15 15
15 15 15 15 15 15 15 15 15 15 15 15 15 15 15 15 15 15 15 15 15 15 15 15 15 15 15 15 15 15 15 15 15 15 15 15 15 15
15 15 14 14 14 14 14 14 14 14 14 14 14 14 14 14 14 14 14 14 14 14 14 14 14 14 14 14 14 14 14 14 14 14 14 14 14 14
14 14 14 14 14 14 14 13 13 13 13 13 13 13 13 13 13 13 13 13 13 14 13 14 14 14 14 14 14 14 14 14 14 14 14 13 13 13
14 13 13 13 13 13 13 13 12 12 12 12 12 12 12 12 12 12 12 12 12 12 12 13 13 13 13 13 13 13 13 13 13 13 13 13 13 13
13 13 13 13 12 12 12 12 12 11 11 11 11 11 11 11 11 11 11 11 11 11 11 11 11 11 12 12 12 12 12 12 12 12 12 12 12 12
12 12 12 12 11 11 11 11 11 11 10 10 10 10 10 10 10 10 10 9 9 10 10 10 10 10 11 11 11 11 11 12 12 11 11 11 11 11
11 11 11 10 10 10 10 10 10 10 10 10 9 9 9 9 9 9 9 8 8 8 9 9 9 9 9 9 10 10 10 11 11 11 11 11 11 11
10 10 9 9 9 9 9 9 8 8 8 8 8 8 8 8 8 8 8 7 7 7 7 7 7 7 7 7 8 8 9 9 9 9 10 10 10 10
9 9 8 8 8 8 8 8 7 7 7 7 7 7 7 7 7 7 7 7 7 6 7 6 6 6 6 6 6 7 7 8 8 8 9 9 9 9
8 8 8 7 7 7 7 7 7 6 6 6 6 6 6 6 6 6 6 6 6 6 6 6 6 6 6 5 6 6 6 7 7 7 8 8 8 8
7 7 7 7 7 6 6 6 6 6 5 5 5 5 5 5 5 5 5 5 5 5 5 5 5 5 5 5 5 5 5 6 6 7 7 7 7 7
7 7 6 6 6 6 6 5 5 5 5 4 4 4 4 4 4 4 3 3 3 4 4 4 4 4 4 4 4 5 5 5 5 6 6 6 6 7
6 6 6 5 5 5 5 4 4 4 4 3 3 3 3 3 3 3 3 3 2 2 2 3 3 3 3 4 4 4 4 4 5 5 5 5 5 6
6 5 5 5 4 4 4 3 3 3 3 2 2 2 2 2 2 2 2 2 2 2 2 2 2 2 2 2 3 4 3 4 4 4 4 5 5 5
5 4 4 4 3 3 3 2 2 2 2 2 2 1 1 1 1 1 1 1 1 1 1 2 2 2 2 2 2 3 4 3 3 4 4 4 4 5
4 4 3 3 3 2 2 2 1 1 1 1 1 1 1 0 0 0 0 0 0 1 1 1 1 1 1 2 2 3 3 4 3 3 3 4 4 4
3 3 3 2 2 2 1 1 1 1 1 0 0 0 -0 -0 -0 -0 -0 -0 0 0 0 1 1 1 1 1 2 2 3 4 4 4 4 4 4 4
2 2 2 2 1 1 1 1 0 0 0 -0 -0 -0 -1 -1 -1 -0 -0 -0 -0 0 0 1 1 1 1 1 1 2 2 3 3 4 4 4 4 4
Wind_Speed
4 3 3 3 3 2 2 2 2 3 3 2 2 3 6 7 14 14 11 17 19 18 18 17 17 16 16 16 15 15 15 15 15 15 15 15 15 15
2 1 2 3 2 2 2 2 2 3 3 2 2 2 2 4 13 12 10 13 19 20 20 20 20 20 20 19 19 19 19 19 19 18 18 18 18 18
4 3 3 3 3 4 3 3 3 3 4 4 3 1 2 2 4 8 9 10 14 22 25 25 25 24 23 22 22 21 21 21 21 21 20 20 20 20
4 4 4 4 4 4 4 5 4 3 3 5 4 3 3 4 5 5 7 11 12 17 24 27 27 27 26 25 24 24 23 23 23 22 22 22 21 21
3 3 3 3 3 3 4 4 4 5 3 4 5 4 4 4 4 5 7 6 11 13 15 21 24 26 26 26 26 26 25 25 25 24 24 23 23 22
1 1 1 1 2 3 3 3 4 5 5 5 5 5 5 4 3 3 4 4 5 9 9 10 15 21 25 26 26 27 27 27 26 26 25 25 24 24
1 1 2 4 5 4 3 3 4 4 4 5 5 5 4 4 4 4 5 5 5 5 4 5 5 6 11 18 23 25 26 26 26 26 26 25 25 25
2 2 3 5 5 5 4 4 3 4 4 4 5 5 5 5 4 5 5 5 5 3 4 7 6 7 7 12 16 19 22 24 24 25 25 25 25 25
5 5 5 8 9 6 4 3 3 2 1 3 5 5 5 5 5 6 6 6 6 6 7 9 7 8 8 16 18 18 18 20 22 23 24 24 25 25
7 7 7 8 9 8 6 5 4 4 3 2 3 4 5 4 4 5 7 7 8 7 7 8 7 8 10 9 16 18 18 18 19 20 22 23 24 24
7 8 7 7 9 10 7 6 6 5 6 6 7 9 11 12 9 5 6 6 8 7 5 6 6 7 7 7 11 15 14 14 16 18 20 22 24 23
6 7 10 8 8 9 6 6 6 7 8 9 8 9 8 9 10 6 5 6 7 6 4 5 6 7 6 5 5 9 12 15 17 18 19 21 21 14
4 4 5 6 6 6 5 4 5 7 8 8 7 6 5 4 3 3 3 4 6 6 7 7 8 8 8 8 8 8 7 7 9 12 16 18 20 15
5 5 3 5 6 7 5 6 9 9 6 6 6 5 6 6 6 6 7 7 7 8 9 8 7 8 10 11 10 7 7 7 7 7 8 14 16 19
5 5 5 6 6 6 4 7 7 5 6 6 6 6 6 6 6 6 7 8 9 12 13 10 7 7 8 10 10 9 10 9 7 8 8 8 7 7
6 6 7 7 5 6 6 3 3 3 5 6 6 7 7 7 7 7 8 8 8 8 10 14 11 8 9 10 10 11 10 9 8 8 8 8 7 8
8 5 2 3 3 4 5 5 5 6 6 7 7 8 8 7 7 7 7 8 8 9 9 8 10 11 9 10 11 11 10 10 10 8 8 10 9 9
7 5 5 6 7 7 7 7 6 7 7 7 7 7 7 8 8 7 7 8 9 9 10 10 10 11 11 9 9 10 9 10 10 9 10 11 12 10
4 5 6 6 6 7 7 7 8 7 6 7 7 7 8 8 8 8 8 8 9 9 10 10 10 10 12 13 9 10 11 12 12 11 11 11 12 10
4 6 6 6 6 6 7 7 7 7 7 7 8 8 8 8 9 9 9 10 10 11 11 10 9 9 10 12 13 14 15 12 11 12 12 12 12 14
7 7 7 7 7 6 6 6 7 7 7 7 7 8 8 9 9 10 10 12 11 10 11 10 10 13 11 10 11 11 11 14 15 13 13 13 14 13
7 7 7 6 6 6 6 6 7 7 7 8 8 9 9 10 10 11 11 11 10 10 12 11 11 11 10 12 13 14 15 14 15 18 18 16 11 11
7 6 6 6 6 6 6 7 9 8 8 9 10 10 10 10 10 10 11 11 11 11 12 12 11 10 11 11 12 13 16 16 13 12 11 14 17 20
Wind_Direction
230 221 251 275 266 290 310 311 299 302 295 240 190 189 180 168 168 188 198 206 211 216 220 225 230 234 237 240 243 246 248 250 251 252 253 253 254 255
246 258 241 288 286 262 266 278 275 277 286 309 267 204 177 190 181 200 221 216 216 221 225 229 232 235 239 242 245 248 249 251 252 253 253 254 255 255
236 229 227 268 307 312 293 272 265 264 274 288 295 270 175 206 172 221 241 234 225 227 229 231 233 236 238 241 244 247 248 250 251 252 252 253 254 254
230 234 234 240 237 277 299 299 292 285 272 284 294 298 261 225 216 228 250 255 251 243 232 232 233 236 239 241 244 246 248 249 250 251 252 252 253 253
231 235 241 256 258 264 272 290 300 293 271 267 275 275 272 262 249 246 253 260 271 274 251 236 237 239 242 244 246 246 247 249 251 251 252 253 253 253
247 259 272 277 287 289 284 291 297 302 303 295 285 286 283 283 275 268 276 275 276 282 290 266 246 244 245 247 249 250 249 250 251 252 253 253 253 253
341 354 44 54 47 23 343 343 330 317 312 310 304 306 310 330 329 319 302 303 290 282 299 299 289 266 261 258 256 255 253 252 252 252 252 252 252 253
43 46 66 52 44 32 12 357 345 320 321 320 316 318 328 337 335 325 318 313 300 318 331 304 302 292 284 277 268 260 257 253 252 251 250 250 250 251
48 41 41 47 34 16 356 354 17 11 304 298 303 313 320 335 336 324 319 309 291 297 303 288 286 284 282 284 283 278 269 262 258 254 252 250 249 250
61 63 66 52 29 14 359 6 1 9 345 318 319 308 307 306 295 293 292 291 281 275 267 274 280 279 282 285 287 283 274 265 262 257 255 254 254 255
68 61 65 63 35 18 11 4 356 351 342 329 307 292 288 284 276 283 287 292 296 297 299 293 297 303 297 292 293 296 293 285 276 269 265 262 259 259
82 76 62 56 36 23 14 360 351 345 336 325 311 298 284 279 271 245 265 289 299 302 316 325 315 319 305 293 305 318 314 302 291 282 274 269 266 264
52 70 62 36 20 7 353 334 324 319 311 303 300 302 304 304 303 287 263 270 288 293 308 318 310 308 297 298 303 300 297 296 297 292 285 277 271 261
33 39 30 349 334 324 317 306 313 314 303 308 319 328 334 339 340 331 318 304 291 287 291 294 294 297 298 298 299 298 297 298 296 291 290 291 283 273
15 360 323 297 305 306 285 297 314 321 332 337 339 339 338 337 334 328 327 325 319 311 309 309 301 300 296 294 294 295 298 294 288 291 292 290 286 284
359 323 300 286 287 310 328 327 317 342 349 345 344 340 340 341 341 341 334 330 322 314 316 322 319 309 303 298 296 296 293 291 291 290 291 291 288 287
336 316 330 12 3 6 3 4 2 4 5 358 349 343 341 339 336 335 329 325 321 320 322 324 323 316 302 296 294 291 293 293 293 296 298 295 289 283
338 343 13 18 12 7 2 359 3 7 2 349 341 339 336 333 329 328 327 326 322 321 321 321 321 317 312 299 282 293 298 300 301 299 295 293 289 284
336 8 21 17 10 6 3 1 358 356 349 343 342 338 335 332 330 328 326 323 320 319 317 316 315 315 314 311 306 308 306 302 298 295 290 288 289 287
19 19 17 13 10 9 5 359 349 344 345 344 338 337 337 332 328 324 322 321 320 316 312 309 310 312 310 305 302 299 291 286 294 296 296 294 289 283
21 18 15 8 7 3 356 348 341 337 341 339 338 341 337 331 325 321 318 317 315 311 311 311 308 308 302 297 295 295 297 294 289 287 291 294 293 292
16 12 8 1 3 358 350 347 340 339 343 344 342 338 333 326 321 318 317 316 312 309 309 309 309 309 305 302 301 301 303 304 297 289 278 273 280 285
13 7 357 356 3 359 354 345 342 345 350 347 341 333 327 321 317 315 314 312 309 308 308 308 308 306 304 301 301 302 304 307 308 306 300 294 284 274
Height
1555 1556 1557 1558 1559 1560 1560 1561 1562 1561 1561 1560 1560 1560 1561 1561 1561 1561 1561 1560 1560 1560 1560 1560 1560 1560 1560 1560 1560 1560 1560 1560 1560 1560 1560 1560 1561 1561
1553 1554 1555 1556 1557 1558 1558 1559 1559 1559 1559 1558 1559 1559 1558 1559 1558 1558 1557 1557 1557 1557 1557 1557 1557 1556 1556 1556 1556 1556 1556 1555 1555 1555 1555 1556 1556 1556
1551 1552 1553 1554 1554 1555 1555 1556 1556 1557 1556 1556 1556 1556 1556 1556 1555 1555 1554 1554 1553 1552 1552 1552 1552 1552 1552 1551 1551 1551 1551 1551 1550 1550 1550 1550 1550 1550
1550 1550 1551 1551 1551 1552 1552 1553 1553 1553 1553 1552 1552 1553 1552 1552 1551 1551 1550 1549 1549 1549 1548 1548 1547 1547 1547 1546 1546 1545 1545 1545 1545 1544 1544 1544 1544 1544
1548 1548 1548 1549 1549 1549 1549 1549 1549 1550 1549 1549 1548 1548 1548 1548 1547 1546 1545 1545 1544 1544 1544 1543 1542 1541 1541 1541 1540 1540 1539 1539 1538 1538 1538 1538 1537 1537
1545 1545 1546 1546 1546 1546 1546 1545 1545 1545 1545 1545 1544 1543 1543 1543 1542 1541 1540 1539 1539 1539 1538 1537 1536 1535 1535 1534 1534 1533 1532 1532 1531 1531 1530 1530 1530 1530
1542 1542 1542 1542 1542 1542 1542 1542 1541 1541 1541 1540 1539 1539 1538 1537 1537 1536 1535 1534 1533 1533 1532 1531 1530 1529 1528 1527 1526 1526 1525 1525 1524 1523 1523 1523 1522 1522
1539 1539 1539 1539 1538 1538 1538 1538 1537 1537 1536 1535 1535 1534 1533 1532 1531 1530 1529 1528 1526 1527 1525 1523 1523 1521 1521 1520 1519 1518 1517 1517 1516 1516 1515 1515 1514 1514
1536 1536 1536 1535 1535 1534 1534 1533 1533 1532 1532 1531 1530 1529 1528 1527 1526 1524 1523 1521 1520 1519 1518 1515 1515 1513 1513 1512 1511 1510 1509 1508 1508 1507 1506 1506 1505 1505
1533 1533 1532 1532 1531 1530 1529 1529 1528 1527 1527 1526 1525 1524 1523 1522 1521 1519 1517 1515 1513 1513 1512 1509 1507 1506 1505 1504 1504 1503 1501 1500 1499 1498 1498 1497 1496 1495
1530 1530 1530 1529 1528 1527 1526 1525 1524 1523 1523 1522 1520 1519 1518 1517 1516 1514 1512 1510 1507 1507 1507 1504 1501 1499 1497 1496 1496 1495 1494 1492 1491 1490 1489 1488 1487 1486
1528 1528 1527 1526 1526 1524 1523 1522 1521 1520 1518 1517 1516 1515 1514 1512 1511 1509 1508 1506 1503 1502 1501 1499 1496 1493 1490 1489 1489 1488 1486 1485 1483 1482 1481 1480 1479 1477
1527 1526 1525 1524 1523 1522 1521 1520 1518 1517 1515 1514 1512 1511 1510 1509 1507 1505 1504 1502 1500 1497 1497 1495 1491 1489 1486 1482 1481 1480 1479 1477 1475 1474 1473 1472 1471 1469
1525 1525 1524 1523 1522 1520 1519 1518 1517 1515 1514 1512 1510 1509 1507 1505 1503 1501 1499 1497 1495 1493 1491 1490 1486 1484 1480 1476 1474 1472 1471 1470 1468 1466 1464 1463 1462 1460
1524 1524 1523 1522 1521 1519 1518 1517 1515 1514 1512 1510 1508 1506 1504 1502 1499 1497 1494 1492 1490 1488 1486 1484 1482 1478 1476 1472 1468 1466 1464 1462 1461 1458 1456 1455 1453 1452
1523 1522 1522 1521 1520 1518 1517 1516 1514 1513 1510 1508 1506 1504 1501 1498 1496 1493 1490 1487 1484 1482 1481 1479 1476 1473 1469 1466 1463 1459 1457 1455 1453 1451 1449 1446 1444 1443
1522 1522 1521 1520 1519 1518 1516 1515 1513 1511 1508 1506 1503 1500 1497 1495 1492 1490 1487 1483 1481 1477 1474 1472 1470 1467 1464 1461 1457 1453 1451 1448 1446 1443 1440 1437 1435 1434
1522 1522 1521 1519 1518 1517 1515 1513 1511 1509 1506 1503 1501 1498 1495 1492 1489 1486 1484 1481 1477 1474 1471 1467 1463 1459 1456 1454 1453 1448 1444 1441 1438 1436 1433 1429 1425 1425
1522 1522 1520 1519 1517 1516 1514 1512 1510 1507 1504 1502 1499 1496 1493 1489 1486 1483 1480 1477 1474 1470 1467 1463 1460 1456 1451 1446 1443 1443 1439 1434 1431 1428 1426 1422 1418 1416
1523 1522 1520 1518 1517 1515 1513 1510 1508 1505 1503 1500 1497 1494 1490 1487 1483 1480 1477 1474 1470 1466 1462 1459 1456 1453 1449 1444 1437 1434 1433 1429 1425 1421 1418 1414 1411 1408
1523 1521 1520 1518 1516 1513 1511 1509 1506 1504 1501 1498 1495 1491 1488 1484 1480 1477 1474 1470 1467 1463 1459 1455 1452 1449 1444 1439 1434 1428 1426 1424 1420 1416 1412 1407 1403 1399
1522 1521 1519 1517 1515 1512 1510 1507 1505 1502 1499 1496 1492 1488 1485 1481 1477 1474 1470 1466 1463 1459 1455 1451 1447 1443 1439 1435 1429 1424 1419 1416 1413 1410 1407 1403 1399 1393
1522 1520 1518 1516 1514 1511 1508 1506 1503 1500 1496 1493 1489 1485 1481 1477 1474 1470 1467 1463 1459 1455 1451 1447 1443 1439 1435 1431 1426 1420 1415 1411 1406 1402 1399 1396 1393 1389